Total_Precipitation_Accumulation
1.59 1.49 1.11 0.68 0.50 0.44 0.47 0.46 0.40 0.44 0.40 0.45 0.44 0.42 0.41 0.44 0.51 0.53 0.52 0.56 0.68 0.85 1.04 1.18 1.49 1.71 1.86 2.06 2.28 2.42 2.44 2.59 2.71 2.77 2.69 2.48 2.32 2.14 1.99 1.81 1.64 1.52 1.39 1.37
1.50 1.12 0.63 0.45 0.49 0.51 0.51 0.53 0.42 0.42 0.43 0.50 0.51 0.45 0.40 0.47 0.55 0.52 0.51 0.50 0.58 0.73 0.89 1.08 1.32 1.49 1.69 1.89 2.01 2.27 2.36 2.39 2.47 2.47 2.55 2.54 2.62 2.47 2.29 2.14 1.85 1.68 1.54 1.44
1.17 0.73 0.55 0.58 0.64 0.64 0.51 0.46 0.42 0.47 0.52 0.56 0.55 0.54 0.47 0.52 0.48 0.52 0.55 0.56 0.59 0.63 0.78 0.96 1.20 1.36 1.50 1.74 1.86 1.98 2.16 2.25 2.38 2.46 2.73 2.78 2.76 2.60 2.34 2.09 1.89 1.74 1.64 1.56
1.03 0.63 0.66 0.74 0.69 0.62 0.56 0.32 0.37 0.50 0.66 0.74 0.63 0.76 0.60 0.53 0.46 0.50 0.55 0.56 0.60 0.64 0.76 0.90 1.01 1.22 1.40 1.53 1.69 1.79 1.96 2.10 2.26 2.42 2.56 2.59 2.44 2.29 2.14 2.05 2.00 1.88 1.73 1.65
1.06 0.71 0.76 0.83 0.62 0.57 0.52 0.32 0.38 0.55 0.69 0.72 0.52 0.60 0.58 0.42 0.42 0.44 0.47 0.49 0.52 0.61 0.68 0.75 0.84 1.01 1.18 1.32 1.49 1.65 1.76 1.87 2.06 2.27 2.26 2.42 2.37 2.19 2.12 2.09 2.03 1.91 1.78 1.68
0.80 0.70 0.83 0.78 0.54 0.58 0.56 0.55 0.62 0.70 0.96 0.95 0.43 0.47 0.55 0.43 0.41 0.43 0.44 0.46 0.49 0.55 0.62 0.66 0.70 0.83 0.99 1.09 1.20 1.42 1.63 1.69 1.83 2.10 2.09 2.04 2.03 1.97 1.98 1.98 1.95 1.91 1.77 1.65
1.19 0.96 0.82 0.77 0.80 0.82 0.83 1.10 1.41 1.36 1.25 0.77 0.28 0.34 0.44 0.34 0.36 0.41 0.41 0.40 0.41 0.43 0.50 0.55 0.53 0.64 0.84 0.95 1.03 1.17 1.41 1.53 1.61 1.77 1.89 1.95 1.93 1.88 1.86 1.81 1.85 1.89 1.79 1.55
1.24 1.16 0.80 0.82 0.90 0.97 0.86 0.95 1.12 0.96 0.61 0.35 0.24 0.31 0.31 0.23 0.26 0.30 0.31 0.30 0.34 0.39 0.42 0.46 0.47 0.54 0.69 0.83 0.92 0.98 1.13 1.31 1.42 1.47 1.59 1.76 1.82 1.77 1.75 1.72 1.74 1.81 1.79 1.66
0.84 0.90 0.57 0.58 0.60 0.68 0.86 0.83 0.66 0.84 0.57 0.38 0.28 0.26 0.24 0.17 0.20 0.22 0.25 0.25 0.30 0.36 0.38 0.43 0.45 0.51 0.57 0.66 0.77 0.83 0.88 1.06 1.18 1.24 1.36 1.49 1.52 1.49 1.47 1.48 1.51 1.56 1.62 1.59
0.73 0.89 0.60 0.59 0.77 0.74 0.74 0.71 0.84 1.23 0.97 0.55 0.28 0.22 0.27 0.21 0.20 0.20 0.23 0.26 0.30 0.33 0.34 0.38 0.44 0.48 0.51 0.55 0.61 0.68 0.77 0.90 1.02 1.08 1.14 1.19 1.23 1.28 1.24 1.22 1.24 1.28 1.33 1.35
0.69 0.96 0.79 0.78 0.94 0.72 0.70 0.81 0.92 0.96 0.78 0.70 0.41 0.28 0.25 0.24 0.21 0.20 0.22 0.27 0.30 0.31 0.33 0.36 0.41 0.46 0.51 0.58 0.61 0.63 0.68 0.75 0.89 0.96 0.95 0.91 0.93 1.04 1.08 1.08 1.06 1.07 1.13 1.22
0.63 0.97 0.83 0.61 0.52 0.42 0.54 0.58 0.71 0.99 0.72 0.55 0.49 0.33 0.20 0.20 0.22 0.24 0.25 0.29 0.28 0.26 0.28 0.33 0.37 0.44 0.48 0.54 0.61 0.65 0.65 0.68 0.77 0.83 0.86 0.83 0.79 0.87 0.91 0.86 0.85 0.88 0.91 1.00
0.71 1.12 1.08 0.78 0.70 0.64 0.64 0.49 0.52 0.81 1.06 0.79 0.64 0.37 0.18 0.15 0.19 0.24 0.27 0.29 0.25 0.24 0.25 0.27 0.31 0.39 0.45 0.50 0.55 0.58 0.60 0.62 0.68 0.71 0.76 0.82 0.80 0.85 0.91 0.84 0.74 0.74 0.76 0.78
0.94 1.13 1.00 0.86 0.69 0.67 0.64 0.48 0.54 1.10 1.39 0.74 0.41 0.30 0.21 0.19 0.22 0.25 0.29 0.30 0.26 0.25 0.27 0.28 0.31 0.36 0.41 0.46 0.51 0.52 0.56 0.58 0.61 0.62 0.67 0.73 0.76 0.79 0.87 0.86 0.74 0.70 0.70 0.70
0.91 1.12 0.73 0.49 0.40 0.51 0.53 0.48 0.57 0.88 0.82 0.72 0.38 0.29 0.31 0.30 0.30 0.29 0.28 0.26 0.25 0.24 0.27 0.29 0.32 0.35 0.36 0.38 0.42 0.43 0.45 0.48 0.52 0.54 0.58 0.67 0.69 0.70 0.79 0.83 0.80 0.78 0.77 0.74
0.64 0.91 0.74 0.53 0.35 0.43 0.47 0.43 0.48 0.55 0.51 0.50 0.41 0.38 0.27 0.26 0.25 0.27 0.27 0.25 0.27 0.24 0.26 0.27 0.30 0.32 0.32 0.35 0.38 0.40 0.42 0.44 0.48 0.51 0.52 0.56 0.58 0.61 0.67 0.74 0.73 0.75 0.80 0.80
0.44 0.68 0.90 0.68 0.40 0.53 0.63 0.49 0.48 0.46 0.36 0.37 0.42 0.32 0.21 0.23 0.24 0.23 0.21 0.20 0.21 0.21 0.20 0.22 0.25 0.29 0.31 0.30 0.32 0.36 0.40 0.45 0.48 0.52 0.53 0.53 0.54 0.55 0.56 0.60 0.67 0.74 0.81 0.85
0.28 0.51 0.89 0.72 0.57 0.73 0.55 0.37 0.35 0.35 0.31 0.29 0.29 0.20 0.19 0.21 0.23 0.21 0.17 0.15 0.14 0.14 0.14 0.15 0.19 0.23 0.28 0.27 0.27 0.29 0.29 0.34 0.39 0.44 0.45 0.47 0.52 0.57 0.57 0.62 0.73 0.84 0.91 0.98
0.16 0.46 0.86 0.75 0.56 0.37 0.23 0.18 0.21 0.29 0.31 0.23 0.20 0.17 0.15 0.17 0.22 0.23 0.20 0.18 0.15 0.13 0.13 0.13 0.13 0.17 0.20 0.22 0.24 0.25 0.27 0.30 0.33 0.38 0.41 0.43 0.50 0.62 0.73 0.80 0.90 0.99 1.07 1.11
0.17 0.39 0.84 0.76 0.63 0.34 0.18 0.07 0.09 0.19 0.33 0.16 0.14 0.17 0.17 0.18 0.23 0.20 0.15 0.14 0.14 0.13 0.12 0.12 0.11 0.11 0.13 0.16 0.20 0.22 0.26 0.32 0.39 0.45 0.51 0.56 0.63 0.76 0.87 0.92 0.97 0.98 0.98 0.99
0.33 0.54 0.75 0.65 0.62 0.30 0.13 0.06 0.08 0.31 0.37 0.12 0.10 0.14 0.18 0.21 0.22 0.16 0.12 0.11 0.11 0.12 0.13 0.15 0.17 0.19 0.21 0.22 0.26 0.32 0.36 0.45 0.53 0.56 0.64 0.70 0.71 0.72 0.73 0.75 0.74 0.69 0.64 0.62
0.27 0.39 0.41 0.45 0.63 0.40 0.15 0.11 0.20 0.29 0.17 0.12 0.11 0.12 0.16 0.18 0.17 0.16 0.14 0.11 0.10 0.11 0.13 0.16 0.22 0.30 0.33 0.36 0.43 0.49 0.52 0.56 0.58 0.61 0.63 0.65 0.65 0.62 0.58 0.54 0.48 0.40 0.35 0.33
0.24 0.33 0.38 0.40 0.44 0.32 0.19 0.18 0.18 0.14 0.14 0.13 0.13 0.14 0.15 0.17 0.17 0.17 0.16 0.13 0.10 0.09 0.10 0.13 0.18 0.22 0.28 0.32 0.36 0.42 0.43 0.42 0.43 0.47 0.50 0.50 0.47 0.43 0.40 0.36 0.33 0.30 0.26 0.24
0.25 0.20 0.27 0.31 0.28 0.22 0.17 0.14 0.13 0.12 0.14 0.14 0.13 0.13 0.13 0.14 0.14 0.13 0.11 0.11 0.10 0.09 0.09 0.09 0.10 0.11 0.13 0.15 0.19 0.22 0.20 0.19 0.20 0.24 0.29 0.32 0.32 0.30 0.28 0.26 0.26 0.25 0.24 0.22
0.26 0.24 0.28 0.30 0.23 0.17 0.17 0.15 0.14 0.12 0.11 0.11 0.11 0.12 0.13 0.13 0.14 0.12 0.10 0.09 0.09 0.10 0.10 0.10 0.11 0.11 0.12 0.12 0.13 0.13 0.13 0.13 0.13 0.14 0.16 0.19 0.21 0.23 0.24 0.23 0.24 0.25 0.25 0.25
0.21 0.25 0.33 0.35 0.22 0.21 0.21 0.14 0.11 0.10 0.10 0.08 0.08 0.10 0.10 0.10 0.12 0.13 0.12 0.11 0.11 0.11 0.11 0.11 0.12 0.12 0.12 0.12 0.11 0.11 0.11 0.12 0.13 0.14 0.14 0.15 0.17 0.19 0.20 0.22 0.23 0.26 0.27 0.29